Wind_Speed
35 36 38 38 34 31 29 28 28 26 24 23 23 24 23 22 21 21 21 19 17 17 16 17 16 15 13
37 36 35 35 33 31 27 23 22 23 23 23 21 21 21 20 20 18 15 18 18 18 16 16 15 15 14
34 32 32 30 31 29 27 25 22 21 21 21 20 19 19 15 15 16 22 19 16 14 16 16 16 15 13
28 32 32 32 30 31 32 28 28 24 22 19 19 20 19 21 18 17 16 17 19 17 15 15 13 13 14
30 32 33 33 31 31 32 32 30 27 24 19 19 16 17 16 17 18 20 20 20 17 13 14 16 17 16
31 32 31 31 29 31 34 35 29 26 26 28 22 21 17 15 17 20 21 18 15 13 16 21 19 17 16
28 25 29 27 26 31 26 24 24 26 24 28 24 22 16 15 15 20 18 19 18 20 20 16 14 16 17
24 26 23 22 24 24 24 24 22 20 15 26 25 20 14 15 16 17 18 20 22 22 19 15 16 18 18
19 24 31 25 22 22 24 21 22 21 17 16 18 17 13 15 16 19 20 19 17 13 14 14 16 16 16
28 21 17 18 17 18 18 19 21 22 8 20 23 21 18 24 18 11 13 16 20 14 17 11 8 10 16
21 19 19 17 16 16 16 18 21 24 23 22 27 26 23 25 27 21 15 10 17 24 22 21 18 17 16
20 21 21 19 17 15 15 16 17 20 20 17 21 20 20 23 25 17 14 10 9 9 11 17 21 19 16
20 20 19 18 17 15 15 15 16 15 14 15 17 16 16 19 22 20 18 13 8 6 6 11 13 14 15
18 18 19 19 18 16 16 17 17 12 7 10 13 14 16 16 16 17 15 13 12 10 10 11 12 12 12
19 20 19 19 17 15 15 16 17 17 14 10 8 10 12 12 14 13 11 9 8 6 8 10 10 10 11
18 18 19 19 19 17 15 14 15 14 15 15 12 8 8 7 7 10 9 7 6 5 5 6 6 5 8
18 18 18 17 17 16 15 14 13 13 12 14 14 12 12 12 7 8 9 6 8 7 7 9 9 6 8
Wind_Direction
305 308 309 312 313 312 311 307 301 295 291 293 293 294 292 283 281 280 283 279 281 287 289 289 292 295 286
305 309 312 314 315 315 317 315 307 298 291 289 289 292 294 279 269 274 289 288 282 279 283 283 290 290 293
307 312 315 321 322 320 320 317 317 317 303 288 286 286 286 270 274 288 281 282 285 290 295 291 286 285 285
310 313 318 324 322 320 319 320 317 315 313 312 290 283 291 287 288 285 287 281 277 286 291 288 286 293 283
308 313 318 323 322 320 314 312 315 317 320 316 313 293 284 282 274 286 296 284 280 283 271 274 277 281 282
311 309 312 315 317 318 315 304 312 319 319 309 306 300 292 277 277 283 288 281 278 262 270 281 263 274 282
308 313 313 313 316 317 319 318 308 313 312 305 314 301 295 282 279 286 278 284 275 273 280 279 267 261 262
308 305 311 314 310 307 306 309 309 314 319 312 315 314 297 277 274 277 280 283 281 279 276 271 263 260 259
305 302 304 308 302 304 307 313 313 321 319 311 321 325 301 290 281 284 290 282 280 283 262 253 249 258 260
318 320 320 313 305 300 306 304 309 309 293 311 306 310 313 299 299 291 274 277 267 267 252 231 249 267 265
324 325 322 319 315 313 306 302 302 295 295 300 299 300 296 297 296 305 309 297 261 261 256 261 260 272 263
331 339 338 337 335 330 322 312 302 298 306 300 293 296 294 294 298 317 321 315 287 269 250 248 252 254 249
338 337 338 336 333 326 322 316 309 309 301 294 291 294 288 289 296 306 313 319 289 261 258 254 251 250 246
337 340 340 343 345 342 337 334 334 343 331 305 295 292 293 293 296 301 306 302 294 294 277 260 252 253 248
350 347 346 345 346 344 342 340 340 343 348 339 313 299 299 302 302 312 316 321 321 291 265 267 265 260 253
353 350 348 348 347 350 344 343 344 350 352 360 347 323 336 353 341 333 320 326 329 321 300 295 299 262 241
347 346 343 346 346 346 349 350 349 350 352 350 346 343 340 339 330 316 317 312 303 304 291 294 297 280 259
Height
1483 1481 1476 1472 1468 1465 1461 1457 1454 1452 1450 1448 1447 1445 1442 1441 1441 1440 1439 1437 1436 1434 1433 1431 1430 1428 1427
1476 1473 1469 1466 1461 1457 1454 1451 1447 1445 1443 1441 1440 1439 1436 1435 1435 1434 1434 1432 1430 1428 1426 1425 1425 1424 1425
1470 1468 1464 1460 1455 1451 1448 1445 1442 1440 1437 1435 1434 1432 1431 1430 1429 1429 1428 1427 1425 1424 1422 1421 1420 1420 1421
1468 1463 1459 1455 1451 1446 1440 1439 1436 1435 1432 1430 1428 1426 1425 1425 1424 1424 1422 1421 1421 1420 1419 1419 1418 1417 1417
1464 1458 1453 1449 1446 1441 1437 1433 1431 1429 1426 1424 1423 1420 1419 1418 1418 1419 1418 1416 1415 1415 1415 1415 1415 1414 1414
1457 1453 1449 1446 1442 1438 1434 1429 1425 1424 1420 1417 1417 1415 1414 1414 1414 1413 1412 1411 1410 1410 1410 1410 1410 1410 1410
1454 1450 1445 1442 1438 1434 1431 1428 1423 1420 1417 1410 1410 1408 1408 1408 1408 1408 1407 1407 1406 1405 1404 1404 1405 1405 1406
1449 1445 1441 1438 1435 1431 1426 1422 1419 1417 1414 1407 1405 1402 1402 1402 1402 1402 1402 1401 1400 1398 1398 1399 1399 1400 1401
1445 1441 1437 1433 1430 1425 1422 1418 1414 1412 1410 1406 1403 1400 1398 1398 1398 1397 1396 1394 1393 1393 1393 1394 1394 1396 1396
1439 1435 1431 1428 1425 1422 1418 1415 1412 1409 1407 1404 1401 1399 1395 1393 1393 1392 1391 1390 1389 1389 1388 1388 1390 1391 1392
1435 1431 1427 1424 1421 1418 1415 1412 1409 1405 1403 1401 1396 1395 1394 1389 1385 1386 1384 1383 1382 1383 1384 1385 1386 1387 1388
1431 1427 1423 1420 1417 1414 1411 1408 1405 1401 1397 1396 1392 1390 1388 1385 1382 1381 1381 1380 1378 1378 1379 1380 1381 1382 1384
1429 1425 1422 1418 1415 1411 1408 1404 1401 1398 1394 1392 1389 1387 1385 1382 1380 1378 1377 1376 1375 1375 1375 1375 1376 1377 1379
1428 1424 1420 1415 1412 1409 1405 1401 1397 1395 1392 1389 1386 1384 1381 1379 1378 1375 1375 1374 1373 1372 1372 1372 1373 1373 1374
1426 1422 1418 1414 1411 1407 1404 1400 1396 1392 1389 1387 1384 1381 1379 1377 1374 1373 1372 1371 1370 1369 1369 1369 1369 1370 1371
1426 1422 1417 1413 1409 1405 1402 1399 1396 1392 1389 1385 1382 1379 1378 1376 1374 1372 1371 1370 1369 1368 1368 1368 1367 1368 1368
1425 1420 1416 1412 1408 1405 1401 1398 1395 1392 1389 1385 1382 1379 1377 1375 1374 1372 1370 1368 1368 1367 1367 1366 1366 1366 1366